KLM625 LIRF-EHAM

Flight info

Callsign KLM625
Flight time N/A
Altitude 32000
Route NEMBO DCT GOVGO DCT AOSTA DCT ORSUD DCT MOLUS DCT GILIR DCT PENDU DCT IXILU DCT EPL DCT ROUSY DCT IDOSA DCT KOMOB DCT BUB Y28 HELEN
Aircraft B738/M-SDE2E3FGHIRWXY/LB1

Departure

Time 2026-05-04 08:46
Airport Rome–Fiumicino Leonardo da Vinci International Airport (LIRF)

Arrival

Time N/A
Airport Amsterdam Airport Schiphol (EHAM)
Time Latitude Longitude Altitude Speed Heading
2026-05-04 08:16 41.79671 12.25813 13 ft 0 kts 115°
2026-05-04 08:35 41.79678 12.25789 14 ft 4 kts 102°
2026-05-04 08:37 41.79666 12.25737 16 ft 0 kts 25°
2026-05-04 08:40 41.80013 12.25910 13 ft 16 kts 25°
2026-05-04 08:40 41.80118 12.25974 13 ft 18 kts 24°
2026-05-04 08:40 41.80235 12.26047 13 ft 20 kts 25°
2026-05-04 08:41 41.80364 12.26126 14 ft 21 kts 24°
2026-05-04 08:41 41.80497 12.26184 15 ft 20 kts 25°
2026-05-04 08:41 41.80559 12.26351 15 ft 21 kts 70°
2026-05-04 08:41 41.80608 12.26530 15 ft 21 kts 70°
2026-05-04 08:42 41.80660 12.26719 14 ft 23 kts 70°
2026-05-04 08:42 41.80717 12.26925 12 ft 24 kts 70°
2026-05-04 08:42 41.80788 12.27045 12 ft 16 kts
2026-05-04 08:42 41.80901 12.26996 13 ft 18 kts 340°
2026-05-04 08:43 41.80956 12.26946 11 ft 4 kts 282°
2026-05-04 08:43 41.80951 12.26899 12 ft 6 kts 251°
2026-05-04 08:43 41.80933 12.26837 14 ft 10 kts 249°
2026-05-04 08:43 41.80884 12.26657 13 ft 44 kts 250°
2026-05-04 08:44 41.80706 12.26012 17 ft 102 kts 249°
2026-05-04 08:44 41.80398 12.24898 16 ft 150 kts 250°
2026-05-04 08:46 41.79101 12.13208 3658 ft 207 kts 264°
2026-05-04 08:46 41.79051 12.11222 3940 ft 222 kts 265°
2026-05-04 08:46 41.79008 12.09073 4182 ft 239 kts 266°
2026-05-04 08:46 41.79002 12.06743 4397 ft 261 kts 266°
2026-05-04 08:47 41.78998 12.04275 5030 ft 266 kts 267°
2026-05-04 08:47 41.78999 12.01803 5811 ft 265 kts 267°
2026-05-04 08:47 41.79005 11.99315 6487 ft 270 kts 268°
2026-05-04 08:47 41.79004 11.96784 7127 ft 272 kts 267°
2026-05-04 08:48 41.78995 11.94244 7783 ft 275 kts 267°
2026-05-04 08:48 41.78988 11.91657 8429 ft 278 kts 267°
2026-05-04 08:48 41.78984 11.89059 9091 ft 281 kts 268°
2026-05-04 08:48 41.78978 11.86417 9691 ft 286 kts 267°
2026-05-04 08:49 41.78971 11.83731 10296 ft 290 kts 266°
2026-05-04 08:50 41.78884 11.64530 11594 ft 385 kts 267°
2026-05-04 08:50 41.78866 11.60938 12210 ft 386 kts 267°
2026-05-04 08:51 41.78939 11.57332 12818 ft 390 kts 276°
2026-05-04 08:51 41.79829 11.53874 13395 ft 399 kts 297°
2026-05-04 08:51 41.81507 11.50890 14026 ft 404 kts 308°
2026-05-04 08:51 41.83375 11.48063 14546 ft 407 kts 310°
2026-05-04 08:52 41.85290 11.45207 14888 ft 416 kts 310°
2026-05-04 08:52 41.87203 11.42352 15438 ft 418 kts 310°
2026-05-04 08:52 41.89135 11.39450 16123 ft 416 kts 309°
2026-05-04 08:52 41.91048 11.36552 16818 ft 414 kts 309°
2026-05-04 08:53 41.92955 11.33648 17428 ft 415 kts 309°
2026-05-04 08:54 42.06415 11.12938 20616 ft 429 kts 309°
2026-05-04 08:55 42.08380 11.09903 21019 ft 432 kts 309°
2026-05-04 08:55 42.10361 11.06839 21376 ft 435 kts 309°
2026-05-04 08:55 42.12354 11.03754 21748 ft 438 kts 309°
2026-05-04 08:55 42.14357 11.00651 22111 ft 440 kts 309°
2026-05-04 08:57 42.28773 10.78520 24334 ft 459 kts 319°
2026-05-04 09:01 42.71890 10.56501 28478 ft 474 kts 337°
2026-05-04 09:01 42.74968 10.54964 29023 ft 469 kts 338°
2026-05-04 09:01 42.78005 10.53445 29154 ft 474 kts 338°
2026-05-04 09:01 42.81115 10.51887 29265 ft 478 kts 338°
2026-05-04 09:02 42.84230 10.50326 29638 ft 476 kts 338°
2026-05-04 09:02 42.87333 10.48770 30090 ft 474 kts 338°
2026-05-04 09:02 42.90420 10.47221 30427 ft 472 kts 338°
2026-05-04 09:02 42.93497 10.45675 30719 ft 472 kts 338°
2026-05-04 09:03 42.96578 10.44124 31001 ft 471 kts 338°
2026-05-04 09:03 42.99654 10.42575 31214 ft 472 kts 338°
2026-05-04 09:03 43.02734 10.41021 31462 ft 472 kts 338°
2026-05-04 09:03 43.05809 10.39469 31790 ft 470 kts 338°
2026-05-04 09:04 43.08873 10.37921 32118 ft 468 kts 338°
2026-05-04 09:04 43.15013 10.34808 32150 ft 471 kts 336°
2026-05-04 09:05 43.20635 10.30469 32153 ft 461 kts 319°
2026-05-04 09:05 43.25631 10.24996 32141 ft 459 kts 318°
2026-05-04 09:06 43.30600 10.19527 32161 ft 457 kts 319°
2026-05-04 09:08 43.50644 9.97717 32143 ft 462 kts 319°
2026-05-04 09:08 43.55690 9.92207 32142 ft 463 kts 319°
2026-05-04 09:09 43.60740 9.86681 32150 ft 464 kts 319°
2026-05-04 09:09 43.65802 9.81130 32140 ft 465 kts 319°
2026-05-04 09:10 43.70014 9.76500 32141 ft 466 kts 319°
2026-05-04 09:10 43.75084 9.70917 32141 ft 466 kts 319°
2026-05-04 09:11 43.80154 9.65321 32142 ft 466 kts 319°
2026-05-04 09:11 43.86042 9.58807 32133 ft 466 kts 319°
2026-05-04 09:12 43.90284 9.54103 32144 ft 466 kts 319°
2026-05-04 09:14 44.10426 9.31645 32141 ft 464 kts 319°
2026-05-04 09:14 44.15489 9.25969 32136 ft 464 kts 319°
2026-05-04 09:15 44.20515 9.20321 32142 ft 464 kts 319°
2026-05-04 09:15 44.25502 9.14705 32155 ft 464 kts 318°
2026-05-04 09:17 44.48145 8.89041 32156 ft 467 kts 318°
2026-05-04 09:18 44.53187 8.83291 32157 ft 467 kts 318°
2026-05-04 09:18 44.58222 8.77536 32148 ft 467 kts 318°
2026-05-04 09:19 44.63254 8.71771 32152 ft 467 kts 317°
2026-05-04 09:19 44.68276 8.66003 32145 ft 466 kts 317°
2026-05-04 09:20 44.73292 8.60230 32124 ft 465 kts 317°
2026-05-04 09:20 44.78297 8.54456 32125 ft 464 kts 317°
2026-05-04 09:21 44.83286 8.48686 32124 ft 464 kts 317°
2026-05-04 09:21 44.88261 8.42920 32140 ft 463 kts 317°
2026-05-04 09:22 44.93200 8.37182 32128 ft 463 kts 317°
2026-05-04 09:22 44.98167 8.31397 32122 ft 463 kts 317°
2026-05-04 09:23 45.03133 8.25602 32119 ft 463 kts 317°
2026-05-04 09:23 45.08089 8.19803 32129 ft 463 kts 317°
2026-05-04 09:25 45.27944 7.96437 32121 ft 465 kts 316°
2026-05-04 09:26 45.32918 7.90550 32128 ft 466 kts 316°
2026-05-04 09:26 45.37895 7.84645 32126 ft 466 kts 316°
2026-05-04 09:27 45.42870 7.78729 32130 ft 466 kts 316°
2026-05-04 09:27 45.47853 7.72788 32127 ft 467 kts 316°
2026-05-04 09:28 45.52841 7.66827 32122 ft 468 kts 316°
2026-05-04 09:28 45.57837 7.60843 32124 ft 470 kts 316°
2026-05-04 09:29 45.62838 7.54838 32125 ft 469 kts 316°
2026-05-04 09:29 45.67831 7.48827 32129 ft 470 kts 316°
2026-05-04 09:30 45.72823 7.42804 32128 ft 469 kts 316°
2026-05-04 09:30 45.77801 7.36784 32136 ft 468 kts 315°
2026-05-04 09:31 45.82928 7.31011 32125 ft 470 kts 321°
2026-05-04 09:31 45.88322 7.25723 32107 ft 469 kts 321°
2026-05-04 09:32 45.93669 7.20384 32095 ft 467 kts 320°
2026-05-04 09:34 46.14964 6.98503 32041 ft 474 kts 320°
2026-05-04 09:34 46.20337 6.92953 32001 ft 477 kts 320°
2026-05-04 09:35 46.25669 6.87427 32021 ft 473 kts 320°
2026-05-04 09:35 46.31004 6.81882 32018 ft 471 kts 319°
2026-05-04 09:37 46.50300 6.63479 32037 ft 487 kts 330°
2026-05-04 09:37 46.53370 6.61400 32037 ft 488 kts 330°
2026-05-04 09:38 46.59523 6.57218 32025 ft 487 kts 330°
2026-05-04 09:38 46.65624 6.52957 32031 ft 486 kts 329°
2026-05-04 09:39 46.71694 6.48653 32041 ft 485 kts 329°
2026-05-04 09:39 46.77749 6.44342 32039 ft 485 kts 329°
2026-05-04 09:40 46.83807 6.40023 32035 ft 484 kts 329°
2026-05-04 09:40 46.89865 6.35696 32035 ft 484 kts 329°
2026-05-04 09:42 47.14034 6.18353 32048 ft 484 kts 329°
2026-05-04 09:43 47.20081 6.14007 32034 ft 484 kts 329°
2026-05-04 09:43 47.26143 6.09636 32038 ft 486 kts 329°
2026-05-04 09:44 47.32204 6.05390 32026 ft 489 kts 335°
2026-05-04 09:46 47.59737 6.03819 32032 ft 491 kts 358°
2026-05-04 09:46 47.66560 6.03949 32057 ft 490 kts 358°
2026-05-04 09:47 47.73390 6.04085 32038 ft 490 kts 358°
2026-05-04 09:49 48.00580 6.04923 32042 ft 488 kts 358°
2026-05-04 09:51 48.24285 6.05663 32043 ft 486 kts 358°
2026-05-04 09:51 48.31047 6.05876 32057 ft 486 kts 358°
2026-05-04 09:52 48.37805 6.06148 32054 ft 486 kts 359°
2026-05-04 09:52 48.44571 6.06486 32048 ft 486 kts 359°
2026-05-04 09:53 48.51326 6.06822 32045 ft 485 kts 359°
2026-05-04 09:53 48.58073 6.07148 32044 ft 485 kts 359°
2026-05-04 09:54 48.64823 6.07471 32032 ft 485 kts 359°
2026-05-04 09:54 48.71576 6.07793 32020 ft 486 kts 359°
2026-05-04 09:55 48.78337 6.08118 32023 ft 486 kts 359°
2026-05-04 09:55 48.85040 6.08441 32019 ft 485 kts 359°
2026-05-04 09:56 48.91785 6.08767 32029 ft 485 kts 359°
2026-05-04 09:56 48.98529 6.09094 32025 ft 485 kts 359°
2026-05-04 09:57 49.05276 6.09422 32026 ft 485 kts 359°
2026-05-04 09:57 49.12020 6.09750 32025 ft 485 kts 359°
2026-05-04 09:58 49.17632 6.10024 32019 ft 486 kts 359°
2026-05-04 09:58 49.24381 6.10355 32027 ft 485 kts 359°
2026-05-04 10:00 49.47896 6.10133 32027 ft 476 kts 339°
2026-05-04 10:00 49.50990 6.08432 32027 ft 470 kts 330°
2026-05-04 10:04 49.88463 5.69543 32025 ft 464 kts 315°
2026-05-04 10:04 49.93512 5.63301 32012 ft 464 kts 315°
2026-05-04 10:05 49.98555 5.57081 32016 ft 463 kts 315°
2026-05-04 10:05 50.03557 5.50891 32011 ft 462 kts 315°
2026-05-04 10:06 50.08574 5.44659 32027 ft 461 kts 315°
2026-05-04 10:06 50.13588 5.38418 32013 ft 461 kts 315°
2026-05-04 10:08 50.32044 5.18238 32027 ft 468 kts 319°
2026-05-04 10:08 50.37412 5.12379 32015 ft 470 kts 319°
2026-05-04 10:09 50.42776 5.06503 32021 ft 470 kts 318°
2026-05-04 10:09 50.48135 5.00613 32012 ft 470 kts 318°
2026-05-04 10:10 50.53492 4.94709 32004 ft 470 kts 318°
2026-05-04 10:10 50.58838 4.88802 32010 ft 469 kts 318°
2026-05-04 10:11 50.64168 4.82896 32002 ft 468 kts 318°
2026-05-04 10:11 50.69492 4.76979 32001 ft 467 kts 318°
2026-05-04 10:12 50.74799 4.71064 32001 ft 467 kts 318°
2026-05-04 10:12 50.80104 4.65132 32033 ft 468 kts 318°
2026-05-04 10:13 50.85421 4.59174 32026 ft 469 kts 318°
2026-05-04 10:13 50.90388 4.52626 32024 ft 458 kts 304°
2026-05-04 10:14 50.93941 4.44478 32028 ft 447 kts 294°
2026-05-04 10:16 51.04893 4.15793 30044 ft 433 kts 294°
2026-05-04 10:16 51.06482 4.11627 28632 ft 447 kts 295°
2026-05-04 10:16 51.08155 4.07312 27300 ft 459 kts 298°
2026-05-04 10:16 51.10164 4.03250 26046 ft 475 kts 308°
2026-05-04 10:17 51.12611 3.99664 25209 ft 481 kts 318°
2026-05-04 10:17 51.15319 3.96567 24568 ft 477 kts 321°
2026-05-04 10:19 51.36080 3.86593 20068 ft 451 kts 358°
2026-05-04 10:19 51.39199 3.86581 19458 ft 446 kts 358°
2026-05-04 10:19 51.42291 3.86540 18816 ft 443 kts 358°
2026-05-04 10:19 51.45357 3.86478 18179 ft 438 kts 358°
2026-05-04 10:20 51.48386 3.86407 17483 ft 432 kts 358°
2026-05-04 10:20 51.51370 3.86334 16867 ft 427 kts 357°
2026-05-04 10:20 51.54323 3.86260 16232 ft 422 kts 357°
2026-05-04 10:20 51.57239 3.86187 15620 ft 417 kts 357°
2026-05-04 10:21 51.60128 3.86116 15017 ft 413 kts 357°
2026-05-04 10:21 51.62988 3.86046 14447 ft 409 kts 358°
2026-05-04 10:21 51.65819 3.85977 13853 ft 405 kts 358°
2026-05-04 10:21 51.68627 3.85909 13203 ft 402 kts 358°
2026-05-04 10:22 51.73905 3.88163 12002 ft 397 kts 33°
2026-05-04 10:22 51.76044 3.90943 11421 ft 394 kts 41°
2026-05-04 10:22 51.78049 3.93899 11074 ft 385 kts 42°
2026-05-04 10:23 51.79986 3.96792 10917 ft 373 kts 42°
2026-05-04 10:23 51.81872 3.99584 10762 ft 363 kts 42°
2026-05-04 10:25 51.93715 4.16800 9823 ft 295 kts 41°
2026-05-04 10:25 51.95231 4.19006 9703 ft 292 kts 41°
2026-05-04 10:25 51.96736 4.21199 9594 ft 291 kts 41°
2026-05-04 10:25 51.98254 4.23411 9496 ft 295 kts 41°
2026-05-04 10:26 51.99791 4.25654 9378 ft 298 kts 41°
2026-05-04 10:26 52.01329 4.27901 9265 ft 296 kts 41°
2026-05-04 10:26 52.02856 4.30134 9154 ft 294 kts 41°
2026-05-04 10:26 52.04373 4.32355 9035 ft 293 kts 41°
2026-05-04 10:27 52.05878 4.34561 8925 ft 291 kts 41°
2026-05-04 10:27 52.07377 4.36759 8822 ft 290 kts 41°
2026-05-04 10:27 52.08873 4.38956 8714 ft 289 kts 41°
2026-05-04 10:27 52.10356 4.41134 8603 ft 285 kts 41°
2026-05-04 10:28 52.11835 4.43309 8519 ft 288 kts 41°